Location: St. Louis
(38.6270°N, 90.1994°W)
Time: 08:03:03
(UTC-05:00)

ISS - Pass Details

Date: 14 March 2014
Orbit: 401 x 404 km, 51.6° (Epoch: 30 July)

Event Time Altitude Azimuth Distance (km) Brightness Sun altitude
Exits shadow 06:26:47 12° 237° (WSW) 1,354 -1.2 -10.0°
Maximum altitude 06:29:47 74° 321° (NW) 423 -3.4 -9.4°
Drops below altitude 10° 06:33:03 10° 48° (NE) 1,457 0.3 -8.8°
Sets 06:35:08 0° 50° (NE) 2,317 1.5 -8.3°
